FENGYUN 1C DEB, 31073

Orbit data source: Space-Track

FENGYUN 1C DEB, 31073 is space debris in SSO originally from a launch on Mon, 10 May 1999 UTC launched from the Taiyaun Space Center, China (TSC). Fengyun 1C debris stems from the Chinese weather satellite Fengyun-1C, which was intentionally destroyed by a Chinese anti-satellite missile in 2007. This event dramatically increased the amount of space debris, with thousands of trackable fragments posing hazards to satellites and human spaceflight. The Fengyun 1C debris cloud has become a focal point in discussions about space sustainability and the need for international regulations to prevent the creation of new debris.

Loading next visibility...
Identifier
31073, 1999-025BFT
Orbit
SSO
Country
Flag of CNCN / PRC
Related business
Manufacturer
Unknown
Mission
Spacecraft
Bus & Motor
Unknown
Mass
Unknown
Launch date (UTC)
1999-05-10 (27 years ago)
Launch vehicle
Unknown
Launch site
Taiyaun Space Center, China (TSC)
Object type
Payload
Rocket body
Debris
Shape & HBR
Unknown shape, 0.1 m
Radar Cross Section
Medium (>0.1 m² and <1 m²)

Expand to show TLE details & history
Last TLE update: 1 day ago

TLE from 1 day ago
0 FENGYUN 1C DEB
1 31073U 99025BFT 26168.41485789  .00001752  00000-0  74959-3 0  9990
2 31073  99.2063  32.4726 0044792 108.0293 252.5773 14.25784627997426
Epoch: 2026-06-17T09:57Z
TLE epoch observation values (Epoch: 2026-06-17T09:57:23.721Z)
Latitude
-0.00005°
Longitude
-22.5491°
Altitude
818.53 km
Speed
7.439 km/s
True Right ascension
02h 09m 53s
True Declination
0° 00' 00"
Sunlit
Object was in daylight at epoch
Visualization orbit readout
Latitude
Unknown
Longitude
Unknown
Altitude
Unknown
Speed
Unknown
Apparent Right ascension
Unknown
Apparent Declination
Unknown
Sunlit
N/A
Visualization observer readout
Local Sidereal Time
07:08:22
Azimuth
Unknown
Elevation
Unknown
Doppler factor
Unknown
Orbital elements
Apogee altitude
835.197 km
Perigee altitude
770.865 km
Semi-major axis
7,181.168 km
Eccentricity
0.00448
Inclination
99.2063°
RAAN
32.4726°
Arg. of periapsis
108.0293°
True anomaly
252.0884°
Mean anomaly
252.5773°
Eccentric anomaly
252.33277°
Mean motion
3.56657 °/min
Orbital period
100.94 mins
BSTAR
0.00074959
Loading maneuver chart data...
Computing Atmospheric mass density...

Documentation

Showing up to 5 results
|